{"data":{"norad_id":62657,"intl_designator":"2025-009BA","name":"TRANSPORTER-12 OBJECT BA","alt_names":[],"object_type":"PAYLOAD","status":"ACTIVE","operator":null,"country":"TBD","launch_date":"2025-01-14","launch_site_code":"AFWTR","launch_vehicle":null,"mission":null,"orbit_class":"UNKNOWN","rcs_meters":null,"size_class":null,"mass_kg":null,"dimensions":null,"purposes":[],"wikipedia_slug":null,"has_3d_model":false,"image_url":null,"decayed_at":null,"tle_current":{"epoch":"2026-09-22T16:46:12.769824Z","epoch_age_seconds":127777,"freshness":"FRESH","line1":"1 62657U 25009BA  26265.69875891  .00006081  00000+0  20965-3 0  9995","line2":"2 62657  97.3891 346.8761 0000519 357.5361   2.5877 15.30369091 93834","mean_motion":15.30369091,"eccentricity":5.19e-5,"inclination_deg":97.3891,"raan_deg":346.8761,"arg_perigee_deg":357.5361,"mean_anomaly_deg":2.5877,"bstar":0.00020965,"rev_number":9383,"period_min":94.094947974874,"perigee_km":474.35457788749,"apogee_km":475.06590343107,"semimajor_km":6852.8472406593,"source":"CELESTRAK","updated_at":"2026-09-23T09:00:21.541537Z"}}}